Content
SEND FEEDBACK

Daily
Averages
Monthly
Summary
United States of America

PUEBLO, COLORADO


Home > North America > United States > Colorado
Elevation: 4658 feet     Latitude: 38 17N     Longitude: 104 30W

WEATHER
 
SELECT A DAY
Number of Records: 188,800;   Date Range: 1/1/95 - 4/22/14
 
SHARE

PRINT THIS DATA

[ ← Previous Day ]
WEATHER ALMANAC - FEBRUARY 13, 2013
[ Next Day → ]
[ °C ]   °F
Weather ElementAverageHighLow
Temperature31.3 °F53.1 °F (1:53 pm)8.1 °F (6:53 am)
Dewpoint8.4 °F12.9 °F (11:53 am)1.9 °F (6:53 am)
Humidity43.3 %76 % (6:53 am)20 % (1:53 pm)
Barometer30.03 in30.13 in (6:53 am)29.92 in (1:53 pm)
Wind Speed2.3 mph6.9 mph (2:53 pm)
Weather ElementAverage
Visibility10 mi
Wind DirectionE (95.2 °)

Weather ElementTotal
Precipitation---
Heating Degree Days34.4 (Base 65)
Averaged from 23 records on February 13, 2013
WEATHER CONDITIONS BREAKOUT
WIND DIRECTION BREAKOUT
WEATHER BY HOUR - FEBRUARY 13, 2013
[ °C ]   °F
Local TimeTemperatureDewpointHumidityBarometerVisibilityWind DirectionWind SpeedGust SpeedPrecipitationEventsConditions
1:53 AM12.9 °F5.0 °F71 %30.10 in10.0 miWNW (300°)4.6 mphClear
2:53 AM15.1 °F7.0 °F70 %30.09 in10.0 miWNW (290°)5.8 mphClear
3:53 AM14.0 °F6.1 °F71 %30.06 in10.0 miCalmClear
4:53 AM12.9 °F5.0 °F71 %30.06 in10.0 miCalmClear
5:53 AM12.9 °F5.0 °F71 %30.09 in10.0 miCalmClear
6:53 AM8.1 °F1.9 °F76 %30.13 in10.0 miWNW (290°)3.5 mphClear
7:53 AM19.0 °F8.1 °F62 %30.11 in10.0 miCalmClear
8:53 AM28.0 °F10.0 °F47 %30.07 in10.0 miCalmClear
9:53 AM34.0 °F10.0 °F37 %30.04 in10.0 miESE (120°)3.5 mphClear
10:53 AM39.9 °F12.0 °F32 %30.00 in10.0 miCalmClear
11:53 AM46.9 °F12.9 °F25 %29.95 in10.0 miCalmClear
12:53 PM50.0 °F12.0 °F22 %29.94 in10.0 miVariable3.5 mphClear
1:53 PM53.1 °F12.0 °F20 %29.92 in10.0 miWNW (290°)5.8 mphClear
2:53 PM53.1 °F12.9 °F20 %29.92 in10.0 miSW (220°)6.9 mphClear
3:53 PM51.1 °F12.9 °F22 %29.94 in10.0 miSW (230°)3.5 mphClear
4:53 PM48.9 °F9.0 °F20 %29.96 in10.0 miNE (50°)5.8 mphClear
5:53 PM37.9 °F9.0 °F30 %30.00 in10.0 miCalmClear
6:53 PM37.0 °F7.0 °F29 %30.05 in10.0 miENE (60°)4.6 mphClear
7:53 PM34.0 °F7.0 °F32 %30.05 in10.0 miCalmClear
8:53 PM34.0 °F7.0 °F32 %30.03 in10.0 miCalmClear
9:53 PM28.0 °F7.0 °F41 %30.05 in10.0 miNNW (340°)5.8 mphClear
10:53 PM25.0 °F7.0 °F46 %30.04 in10.0 miCalmClear
11:53 PM25.0 °F8.1 °F49 %30.04 in10.0 miCalmClear
Hourly data recorded from KPUB, located 0.69 miles away from Pueblo, Colorado







STORIES FROM OUR PARTNERS